[[{"header":{"parameterUnit":"m.s-1","parameterCategory":2,"la1":30.2992,"la2":30.254,"lo1":-89.0895,"lo2":-89.0443,"dy":0.0025,"dx":0.0025,"nx":19,"ny":19,"refTime":"2026-04-22T03:00:00:Z","depth":"0","parameterNumber":2,"parameterNumberName":"U-component_of_CURRENTS"},"data":[0,0,0,-0.3602,-0.3607,-0.3769,-0.3769,-0.3831,-0.3831,0,0,0,0,0,0,0,0,0,0,0,-0.3525,-0.3527,-0.3602,-0.3607,-0.3769,-0.3769,-0.3831,-0.3831,0,0,0,0,0,0,0,0,0,0,0,-0.3525,-0.3527,-0.3528,-0.3608,-0.3769,-0.3769,-0.3831,-0.3737,0,0,0,0,0,0,0,0,0,0,-0.3594,-0.3537,-0.3526,-0.3528,-0.3609,-0.3769,-0.3769,-0.3734,-0.3743,-0.3726,0,-0.3767,0,-0.3822,-0.3835,-0.3835,0,0,0,-0.3575,-0.353,-0.3603,-0.3529,-0.3611,-0.3769,-0.3687,-0.374,-0.375,-0.3737,-0.3769,-0.3773,-0.3823,-0.3835,-0.3836,-0.3767,-0.3766,0,0,-0.3566,-0.3521,-0.3597,-0.361,-0.3673,-0.3682,-0.3692,-0.3747,-0.3744,-0.3769,-0.3776,-0.3824,-0.3836,-0.3836,-0.3768,-0.3767,0,0,0,-0.3562,-0.3514,-0.3587,-0.3605,-0.366,-0.3688,-0.3699,-0.3741,-0.3775,-0.3777,-0.3825,-0.3836,-0.3837,-0.377,-0.3768,-0.3705,0,0,0,-0.3555,-0.3516,-0.3583,-0.3553,-0.366,-0.372,-0.3692,-0.377,-0.378,-0.3825,-0.3836,-0.3837,-0.3771,-0.3769,-0.3709,-0.369,0,0,0,-0.3515,-0.351,-0.3542,-0.3551,-0.3643,-0.3721,-0.3756,-0.3774,-0.381,-0.3835,-0.3837,-0.3772,-0.3769,-0.3713,-0.3697,-0.3683,0,0,0,-0.3443,-0.3507,-0.3541,-0.3628,-0.3642,-0.3759,-0.3757,-0.3828,-0.3854,-0.3836,-0.3771,-0.3768,-0.3715,-0.37,-0.3686,-0.3523,-0.3495,0,0,-0.3489,-0.351,-0.3568,-0.3605,-0.3687,-0.3733,-0.3743,-0.3776,-0.3788,-0.374,-0.374,-0.3708,-0.3697,-0.3683,-0.3362,-0.3339,0,0,0,-0.3561,-0.3578,-0.3622,-0.3674,-0.3766,-0.3727,-0.3781,-0.3759,-0.37,-0.3799,-0.3668,-0.3663,-0.3658,-0.3564,-0.3544,-0.3478,-0.3755,-0.3755,-0.3756,-0.3472,-0.3549,-0.3575,-0.3637,-0.369,-0.3716,-0.3683,-0.3633,-0.3677,-0.3607,-0.3582,-0.3488,-0.3382,-0.3367,-0.3299,-0.3544,-0.3543,-0.3543,-0.3543,-0.3409,-0.3375,-0.3455,-0.3501,-0.3504,-0.3503,-0.3505,-0.3505,-0.3445,-0.3469,-0.3468,-0.3464,-0.3342,-0.3277,-0.3538,-0.3539,-0.354,-0.354,-0.354,-0.3232,-0.3214,-0.3274,-0.3285,-0.328,-0.3334,-0.3301,-0.3349,-0.337,-0.3363,-0.3298,-0.3297,-0.3271,-0.3377,-0.3377,-0.3377,-0.3377,-0.3376,-0.3376,-0.297,-0.3035,-0.3007,-0.3065,-0.3068,-0.31,-0.3196,-0.3204,-0.321,-0.321,-0.3209,-0.3191,-0.3438,-0.3481,-0.3373,-0.3374,-0.3374,-0.3375,-0.3375,-0.271,-0.2777,-0.2724,-0.2732,-0.2777,-0.2745,-0.2927,-0.2947,-0.3001,-0.2959,-0.2926,-0.3128,-0.3144,-0.3157,-0.3191,-0.3016,-0.3016,-0.3016,-0.3016,-0.251,-0.2547,-0.2458,-0.2442,-0.2452,-0.2563,-0.2475,-0.2561,-0.2652,-0.2638,-0.2743,-0.2716,-0.2734,-0.2728,-0.275,-0.2778,-0.2502,-0.2501,-0.2501,-0.2321,-0.2341,-0.2209,-0.2256,-0.229,-0.2329,-0.2186,-0.218,-0.2341,-0.2483,-0.2681,-0.2703,-0.2675,-0.2708,-0.2713,-0.275,-0.2802,0,0]},{"header":{"parameterUnit":"m.s-1","parameterCategory":2,"la1":30.2992,"la2":30.254,"lo1":-89.0895,"lo2":-89.0443,"dy":0.0025,"dx":0.0025,"nx":19,"ny":19,"refTime":"2026-04-22T03:00:00:Z","depth":"0","parameterNumber":3,"parameterNumberName":"V-component_of_CURRENTS"},"data":[0,0,0,-0.0401,-0.0398,-0.0225,-0.0224,0.0056,0.0058,0,0,0,0,0,0,0,0,0,0,0,-0.0464,-0.0464,-0.0401,-0.0398,-0.0226,-0.0224,0.0055,0.0058,0,0,0,0,0,0,0,0,0,0,0,-0.0465,-0.0464,-0.0464,-0.0397,-0.0226,-0.0224,0.0055,-0.0082,0,0,0,0,0,0,0,0,0,0,-0.0254,-0.0332,-0.0464,-0.0464,-0.0396,-0.0226,-0.0224,-0.0089,-0.0074,-0.0016,0,-0.0014,0,0.0018,0.0075,0.0076,0,0,0,-0.0365,-0.0345,-0.0305,-0.0464,-0.0395,-0.0226,-0.0294,-0.0081,-0.0063,0.0005,-0.001,0.0001,0.0023,0.0077,0.0078,0.0198,0.0197,0,0,-0.0375,-0.0415,-0.0318,-0.0295,-0.0381,-0.03,-0.0289,-0.007,-0.006,-0.0009,0.0007,0.0028,0.0078,0.008,0.0198,0.0198,0,0,0,-0.0424,-0.0422,-0.0387,-0.0307,-0.0286,-0.0296,-0.0283,-0.0069,-0.0061,0.0011,0.0031,0.008,0.0083,0.0199,0.0198,0.006,0,0,0,-0.0428,-0.0453,-0.0393,-0.0411,-0.0292,-0.0183,-0.0287,-0.0076,-0.005,0.0029,0.008,0.0086,0.02,0.0199,0.0066,0.0021,0,0,0,-0.0467,-0.0456,-0.0448,-0.0415,-0.0355,-0.0187,-0.0163,-0.0069,-0.0038,0.0076,0.0086,0.02,0.0199,0.007,0.0028,0.0058,0,0,0,-0.0495,-0.0542,-0.0449,-0.0481,-0.0357,-0.0299,-0.0165,-0.0091,-0.0008,0.0081,0.02,0.0198,0.0072,0.0033,0.0061,0.0174,0.0168,0,0,-0.0583,-0.0553,-0.0572,-0.0486,-0.0483,-0.0319,-0.0282,-0.0115,-0.0006,0.014,0.0143,0.0064,0.0029,0.0059,0.0091,0.0087,0,0,0,-0.0618,-0.0636,-0.0618,-0.0584,-0.0498,-0.04,-0.0237,-0.0155,-0.0029,0.0032,0.0073,0.0057,0.008,0.0155,0.0151,0.0456,0.0191,0.0192,0.0192,-0.078,-0.0726,-0.0748,-0.0672,-0.0614,-0.0444,-0.0359,-0.0212,-0.0103,-0.0082,-0.005,-0.0114,-0.004,-0.004,0.0271,-0.005,-0.005,-0.0051,-0.0051,-0.0912,-0.0921,-0.0832,-0.0841,-0.0711,-0.0647,-0.0445,-0.0356,-0.0217,-0.0152,-0.0122,0.0011,-0.0051,0.0282,-0.006,-0.0058,-0.0057,-0.0056,-0.0056,-0.102,-0.1015,-0.1004,-0.0972,-0.0908,-0.0756,-0.0666,-0.0511,-0.0338,-0.0316,-0.014,-0.0135,0.0162,-0.028,-0.028,-0.0281,-0.0281,-0.0281,-0.0281,-0.1123,-0.1108,-0.1142,-0.1099,-0.1074,-0.0992,-0.0783,-0.0658,-0.0407,-0.0257,-0.0254,0.0187,-0.0181,-0.0167,-0.0283,-0.0282,-0.0282,-0.0282,-0.0282,-0.1236,-0.1232,-0.128,-0.1282,-0.1221,-0.115,-0.0965,-0.0628,-0.0464,-0.0306,0.0231,-0.0185,-0.0105,-0.0099,-0.0081,-0.0166,-0.0166,-0.0166,-0.0166,-0.1311,-0.1312,-0.1367,-0.1378,-0.1358,-0.1215,-0.0977,-0.0585,0.0028,0.0368,0.0448,0.0543,0.0525,0.0649,0.0638,0.0675,0.0782,0.0784,0.0786,-0.1364,-0.1372,-0.1418,-0.1422,-0.1406,-0.1261,-0.098,-0.0435,0.0464,0.0853,0.0849,0.0809,0.0975,0.0922,0.1136,0.1096,0.1161,0,0]}],[{"header":{"parameterUnit":"m.s-1","parameterCategory":2,"la1":30.2992,"la2":30.254,"lo1":-89.0895,"lo2":-89.0443,"dy":0.0025,"dx":0.0025,"nx":19,"ny":19,"refTime":"2026-04-22T03:00:00:Z","depth":"2","parameterNumber":2,"parameterNumberName":"U-component_of_CURRENTS"},"data":[0,0,0,-0.3143,-0.3148,-0.3338,-0.3339,-0.3389,-0.3389,0,0,0,0,0,0,0,0,0,0,0,-0.3037,-0.3038,-0.3143,-0.3148,-0.3338,-0.3339,-0.3389,-0.3389,0,0,0,0,0,0,0,0,0,0,0,-0.3037,-0.3038,-0.3039,-0.3149,-0.3338,-0.3339,-0.3389,-0.329,0,0,0,0,0,0,0,0,0,0,-0.3128,-0.3071,-0.3038,-0.3039,-0.315,-0.3338,-0.3339,-0.3288,-0.3296,-0.3251,0,-0.3268,0,-0.3348,-0.3389,-0.3389,0,0,0,-0.3136,-0.3064,-0.3116,-0.3039,-0.3152,-0.3338,-0.3249,-0.3294,-0.3304,-0.3262,-0.3269,-0.3274,-0.3349,-0.3389,-0.3389,-0.3363,-0.3363,0,0,-0.3125,-0.3073,-0.3109,-0.3121,-0.3181,-0.3243,-0.3255,-0.3302,-0.3297,-0.327,-0.3277,-0.335,-0.3389,-0.3389,-0.3364,-0.3363,0,0,0,-0.3103,-0.3065,-0.312,-0.3116,-0.3178,-0.3249,-0.3263,-0.3295,-0.3313,-0.3279,-0.3351,-0.3389,-0.3389,-0.3364,-0.3364,-0.333,0,0,0,-0.3096,-0.3055,-0.3114,-0.3085,-0.3177,-0.327,-0.3254,-0.3309,-0.3319,-0.335,-0.3389,-0.3389,-0.3364,-0.3364,-0.3331,-0.3316,0,0,0,-0.3032,-0.3049,-0.3065,-0.3082,-0.3176,-0.3272,-0.3294,-0.3314,-0.3362,-0.3389,-0.3389,-0.3365,-0.3364,-0.3333,-0.3318,-0.3311,0,0,0,-0.2982,-0.3034,-0.3062,-0.3145,-0.3174,-0.329,-0.3296,-0.3382,-0.341,-0.3389,-0.3364,-0.3364,-0.3333,-0.332,-0.3312,-0.3127,-0.3106,0,0,-0.3032,-0.3038,-0.3094,-0.3127,-0.3221,-0.3264,-0.3323,-0.3363,-0.3372,-0.3333,-0.3335,-0.3331,-0.3318,-0.3311,-0.3088,-0.3067,0,0,0,-0.3103,-0.3107,-0.3149,-0.3208,-0.3297,-0.3308,-0.337,-0.3359,-0.3347,-0.3391,-0.3326,-0.3319,-0.3316,-0.3207,-0.3191,-0.336,-0.336,-0.336,-0.3361,-0.3028,-0.3106,-0.3149,-0.3216,-0.3272,-0.3336,-0.3335,-0.3314,-0.3335,-0.3313,-0.3288,-0.3255,-0.3136,-0.3123,-0.3285,-0.3285,-0.3285,-0.3285,-0.3285,-0.3011,-0.3006,-0.3084,-0.315,-0.3184,-0.3213,-0.3243,-0.3256,-0.3229,-0.3243,-0.3242,-0.3172,-0.3103,-0.3282,-0.3283,-0.3283,-0.3283,-0.3283,-0.3284,-0.2891,-0.2891,-0.2958,-0.3009,-0.304,-0.3113,-0.3103,-0.3162,-0.3186,-0.3187,-0.3089,-0.3087,-0.3242,-0.3198,-0.3198,-0.3197,-0.3197,-0.3197,-0.3197,-0.2709,-0.2778,-0.277,-0.2853,-0.287,-0.2921,-0.3028,-0.3039,-0.3039,-0.3033,-0.3032,-0.3226,-0.3228,-0.3237,-0.3195,-0.3196,-0.3196,-0.3196,-0.3196,-0.2518,-0.2569,-0.2545,-0.2565,-0.2626,-0.2595,-0.2779,-0.2786,-0.284,-0.2791,-0.294,-0.2947,-0.2943,-0.2953,-0.2955,-0.2844,-0.2844,-0.2844,-0.2843,-0.2352,-0.2388,-0.2316,-0.2308,-0.233,-0.2427,-0.2307,-0.233,-0.2473,-0.249,-0.2505,-0.2463,-0.2484,-0.2455,-0.2477,-0.247,-0.2232,-0.2231,-0.223,-0.2193,-0.2211,-0.2094,-0.214,-0.2177,-0.2195,-0.1991,-0.1828,-0.1937,-0.2208,-0.2427,-0.2797,-0.2776,-0.2793,-0.2786,-0.2806,-0.281,0,0]},{"header":{"parameterUnit":"m.s-1","parameterCategory":2,"la1":30.2992,"la2":30.254,"lo1":-89.0895,"lo2":-89.0443,"dy":0.0025,"dx":0.0025,"nx":19,"ny":19,"refTime":"2026-04-22T03:00:00:Z","depth":"2","parameterNumber":3,"parameterNumberName":"V-component_of_CURRENTS"},"data":[0,0,0,-0.0461,-0.0459,-0.031,-0.0309,-0.0058,-0.0056,0,0,0,0,0,0,0,0,0,0,0,-0.0515,-0.0515,-0.0461,-0.0458,-0.031,-0.0309,-0.0058,-0.0056,0,0,0,0,0,0,0,0,0,0,0,-0.0516,-0.0515,-0.0515,-0.0458,-0.031,-0.0309,-0.0059,-0.0178,0,0,0,0,0,0,0,0,0,0,-0.0327,-0.0394,-0.0515,-0.0515,-0.0458,-0.0311,-0.0309,-0.0184,-0.0171,-0.0118,0,-0.012,0,-0.0093,-0.004,-0.004,0,0,0,-0.0426,-0.0405,-0.0375,-0.0515,-0.0457,-0.0311,-0.0368,-0.0177,-0.0161,-0.01,-0.0116,-0.0107,-0.0089,-0.0039,-0.0038,0.0101,0.0101,0,0,-0.0434,-0.0467,-0.0386,-0.0367,-0.0448,-0.0373,-0.0364,-0.0168,-0.0157,-0.0115,-0.0101,-0.0084,-0.0037,-0.0036,0.0102,0.0101,0,0,0,-0.048,-0.0473,-0.0448,-0.0377,-0.0361,-0.0369,-0.0359,-0.0166,-0.0161,-0.0098,-0.0081,-0.0036,-0.0033,0.0102,0.0101,-0.0019,0,0,0,-0.0483,-0.0502,-0.0453,-0.0467,-0.0366,-0.0269,-0.0361,-0.0175,-0.0152,-0.0083,-0.0036,-0.0031,0.0102,0.0102,-0.0016,-0.0059,0,0,0,-0.0517,-0.0505,-0.05,-0.047,-0.0421,-0.0272,-0.0254,-0.0169,-0.0143,-0.0039,-0.0031,0.0102,0.0102,-0.0012,-0.0053,-0.0024,0,0,0,-0.0536,-0.0579,-0.0501,-0.053,-0.0423,-0.0371,-0.0255,-0.0189,-0.0115,-0.0035,0.0102,0.0101,-0.0011,-0.005,-0.0021,0.0061,0.0057,0,0,-0.0612,-0.0588,-0.0606,-0.0534,-0.0528,-0.0387,-0.0341,-0.0196,-0.0097,0.0049,0.0052,-0.0017,-0.0053,-0.0023,0.0036,0.0032,0,0,0,-0.0644,-0.066,-0.0644,-0.0613,-0.0539,-0.0443,-0.03,-0.022,-0.0093,-0.0059,0.0009,-0.0009,0.0013,0.0068,0.0065,0.0099,0.0099,0.01,0.01,-0.0779,-0.0734,-0.0752,-0.0683,-0.0629,-0.047,-0.0386,-0.0242,-0.0148,-0.0115,-0.009,-0.0126,-0.007,-0.0071,-0.0072,-0.0073,-0.0073,-0.0073,-0.0074,-0.0896,-0.0907,-0.0822,-0.083,-0.0706,-0.0641,-0.0439,-0.0356,-0.0214,-0.0158,-0.0129,-0.0041,-0.0081,-0.0083,-0.0081,-0.008,-0.0079,-0.0078,-0.0078,-0.0996,-0.0993,-0.0982,-0.0952,-0.0885,-0.0737,-0.0643,-0.049,-0.0322,-0.0296,-0.0154,-0.015,-0.0177,-0.0265,-0.0266,-0.0266,-0.0266,-0.0266,-0.0266,-0.1098,-0.1081,-0.1115,-0.1071,-0.1047,-0.0965,-0.0756,-0.0636,-0.04,-0.0257,-0.0254,-0.0188,-0.0182,-0.0184,-0.0267,-0.0267,-0.0267,-0.0267,-0.0267,-0.1212,-0.1208,-0.1254,-0.1257,-0.1193,-0.1124,-0.094,-0.0626,-0.0466,-0.0322,-0.0196,-0.0197,-0.013,-0.0125,-0.0123,-0.0185,-0.0185,-0.0185,-0.0185,-0.1291,-0.1291,-0.1345,-0.1353,-0.133,-0.1188,-0.0975,-0.0628,-0.03,-0.014,-0.0143,-0.0112,-0.0115,-0.0045,-0.0041,-0.0037,-0.0076,-0.0076,-0.0076,-0.1348,-0.1354,-0.14,-0.1399,-0.1377,-0.1238,-0.0994,-0.0549,-0.0122,-0.0077,-0.0174,-0.0168,-0.0127,-0.0131,-0.002,-0.0016,-0.0008,0,0]}],[{"header":{"parameterUnit":"m.s-1","parameterCategory":2,"la1":30.2992,"la2":30.254,"lo1":-89.0895,"lo2":-89.0443,"dy":0.0025,"dx":0.0025,"nx":19,"ny":19,"refTime":"2026-04-22T03:00:00:Z","depth":"4","parameterNumber":2,"parameterNumberName":"U-component_of_CURRENTS"},"data":[0,0,0,-0.1899,-0.1902,-0.2096,-0.2097,-0.2256,-0.2257,0,0,0,0,0,0,0,0,0,0,0,-0.1822,-0.1822,-0.1898,-0.1903,-0.2096,-0.2097,-0.2255,-0.2257,0,0,0,0,0,0,0,0,0,0,0,-0.1821,-0.1822,-0.1823,-0.1903,-0.2096,-0.2097,-0.2255,-0.2135,0,0,0,0,0,0,0,0,0,0,-0.1959,-0.1914,-0.1822,-0.1823,-0.1904,-0.2096,-0.2097,-0.213,-0.2142,-0.2138,0,-0.2156,0,-0.2206,-0.2264,-0.2264,0,0,0,-0.1918,-0.1905,-0.1936,-0.1823,-0.1906,-0.2095,-0.2013,-0.2138,-0.2151,-0.2153,-0.2159,-0.2166,-0.2208,-0.2264,-0.2265,-0.2445,-0.2446,0,0,-0.1907,-0.188,-0.1927,-0.1944,-0.1939,-0.2007,-0.2019,-0.2147,-0.2163,-0.2159,-0.217,-0.2211,-0.2265,-0.2266,-0.2444,-0.2445,0,0,0,-0.1866,-0.1873,-0.1905,-0.1937,-0.1977,-0.2012,-0.2026,-0.2158,-0.2163,-0.2172,-0.2213,-0.2266,-0.2267,-0.2442,-0.2444,-0.2491,0,0,0,-0.186,-0.1848,-0.1899,-0.1889,-0.1975,-0.2088,-0.2034,-0.2154,-0.2171,-0.2212,-0.2266,-0.2268,-0.2441,-0.2443,-0.2487,-0.248,0,0,0,-0.1816,-0.1845,-0.1856,-0.1886,-0.1963,-0.2087,-0.2102,-0.216,-0.2194,-0.2264,-0.2268,-0.244,-0.2443,-0.2483,-0.2476,-0.248,0,0,0,-0.1796,-0.1828,-0.1856,-0.1912,-0.196,-0.2084,-0.2102,-0.2211,-0.2275,-0.2266,-0.2441,-0.2444,-0.2482,-0.2473,-0.2477,-0.2128,0,0,0,-0.1824,-0.1831,-0.1865,-0.1894,-0.2007,-0.2059,-0.2206,-0.2291,-0.2316,-0.2391,-0.2397,-0.2488,-0.2475,-0.2479,-0.2296,0,0,0,0,-0.1866,-0.1885,-0.1923,-0.2,-0.2087,-0.2212,-0.2304,-0.2343,-0.2455,-0.2365,-0.2532,-0.2522,-0.2523,-0.2315,-0.2457,-0.2457,-0.2457,-0.2456,-0.2456,-0.186,-0.1919,-0.2002,-0.2096,-0.2183,-0.2332,-0.2416,-0.2497,-0.2508,-0.2576,-0.2594,-0.2672,-0.2461,-0.2646,-0.2647,-0.2647,-0.2647,-0.2647,-0.2647,-0.1906,-0.1945,-0.2062,-0.2168,-0.2301,-0.2428,-0.2557,-0.2594,-0.2679,-0.2682,-0.268,-0.2422,-0.2653,-0.2652,-0.2651,-0.265,-0.265,-0.265,-0.2649,-0.1892,-0.1917,-0.2022,-0.2177,-0.2336,-0.2479,-0.2549,-0.2657,-0.2713,-0.2736,-0.2499,-0.2695,-0.2649,-0.2742,-0.2742,-0.2742,-0.2742,-0.2742,-0.2742,-0.1814,-0.1919,-0.1986,-0.2162,-0.2244,-0.237,-0.254,-0.2555,-0.265,-0.2502,-0.2746,-0.2703,-0.27,-0.2655,-0.2742,-0.2742,-0.2742,-0.2742,-0.2742,-0.1721,-0.178,-0.1851,-0.1932,-0.2091,-0.2156,-0.2368,-0.2337,-0.233,-0.2249,-0.2365,-0.2384,-0.232,-0.2326,-0.2265,-0.224,-0.2235,-0.2231,0,-0.1612,-0.166,-0.1695,-0.1754,-0.1807,-0.2001,-0.1911,-0.1981,-0.206,-0.1999,-0.2331,-0.2465,-0.2475,-0.2407,-0.2406,-0.2335,0,0,0,-0.1508,-0.1545,-0.1509,-0.1611,-0.1656,-0.1716,-0.1872,-0.1802,-0.2075,-0.1944,-0.2125,-0.2152,-0.2493,-0.2744,-0.269,-0.2686,-0.261,0,0]},{"header":{"parameterUnit":"m.s-1","parameterCategory":2,"la1":30.2992,"la2":30.254,"lo1":-89.0895,"lo2":-89.0443,"dy":0.0025,"dx":0.0025,"nx":19,"ny":19,"refTime":"2026-04-22T03:00:00:Z","depth":"4","parameterNumber":3,"parameterNumberName":"V-component_of_CURRENTS"},"data":[0,0,0,-0.0385,-0.0385,-0.0332,-0.0332,-0.017,-0.0168,0,0,0,0,0,0,0,0,0,0,0,-0.0401,-0.0401,-0.0385,-0.0385,-0.0333,-0.0332,-0.017,-0.0168,0,0,0,0,0,0,0,0,0,0,0,-0.0401,-0.0401,-0.0401,-0.0385,-0.0333,-0.0332,-0.017,-0.0228,0,0,0,0,0,0,0,0,0,0,-0.0289,-0.0326,-0.0401,-0.0401,-0.0384,-0.0333,-0.0332,-0.0232,-0.0225,-0.0173,0,-0.018,0,-0.0178,-0.0157,-0.0157,0,0,0,-0.0363,-0.0333,-0.0322,-0.0401,-0.0384,-0.0333,-0.035,-0.0228,-0.022,-0.0163,-0.0178,-0.0173,-0.0175,-0.0156,-0.0155,-0.0004,-0.0004,0,0,-0.0366,-0.0381,-0.0328,-0.0317,-0.0388,-0.0352,-0.0349,-0.0224,-0.0219,-0.0178,-0.0169,-0.0173,-0.0155,-0.0154,-0.0005,-0.0004,0,0,0,-0.0389,-0.0383,-0.0376,-0.0323,-0.0326,-0.0351,-0.0347,-0.0224,-0.0224,-0.0168,-0.0171,-0.0154,-0.0152,-0.0005,-0.0005,-0.0088,0,0,0,-0.0389,-0.0398,-0.0378,-0.0384,-0.0329,-0.0288,-0.035,-0.0232,-0.0219,-0.0171,-0.0154,-0.015,-0.0006,-0.0005,-0.0087,-0.0125,0,0,0,-0.0401,-0.0398,-0.0399,-0.0385,-0.0373,-0.0291,-0.0282,-0.0229,-0.022,-0.0156,-0.015,-0.0006,-0.0005,-0.0086,-0.0122,-0.0095,0,0,0,-0.0406,-0.0437,-0.04,-0.0426,-0.0374,-0.0352,-0.0283,-0.0256,-0.0212,-0.0153,-0.0006,-0.0005,-0.0085,-0.012,-0.0094,-0.0135,0,0,0,-0.0454,-0.0443,-0.0458,-0.0424,-0.0431,-0.0356,-0.0323,-0.0242,-0.0168,-0.0037,-0.0034,-0.0087,-0.0122,-0.0095,-0.0075,0,0,0,0,-0.0479,-0.0492,-0.0485,-0.0478,-0.044,-0.0383,-0.0302,-0.0236,-0.0131,-0.014,-0.0043,-0.0062,-0.0042,-0.0061,0.0,0.0,-0.0,-0.0,-0.0,-0.056,-0.0538,-0.0558,-0.0522,-0.049,-0.0392,-0.0329,-0.0212,-0.015,-0.0108,-0.0098,-0.0091,-0.0112,-0.0058,-0.0058,-0.0058,-0.0059,-0.0059,-0.0059,-0.0639,-0.0656,-0.0607,-0.0628,-0.0547,-0.0504,-0.0336,-0.0275,-0.0144,-0.0107,-0.0084,-0.0109,-0.0066,-0.0065,-0.0064,-0.0063,-0.0062,-0.0062,-0.0062,-0.0709,-0.0713,-0.0724,-0.0726,-0.0685,-0.0579,-0.0497,-0.0367,-0.0224,-0.0198,-0.0167,-0.012,-0.0147,-0.0178,-0.0179,-0.0179,-0.0179,-0.0179,-0.0179,-0.0779,-0.0782,-0.083,-0.0821,-0.0819,-0.0762,-0.0592,-0.0492,-0.0336,-0.0249,-0.0214,-0.013,-0.0126,-0.015,-0.018,-0.0179,-0.0179,-0.0179,-0.0179,-0.0854,-0.0872,-0.0932,-0.0956,-0.0931,-0.0875,-0.0743,-0.0524,-0.0417,-0.0307,-0.0245,-0.0242,-0.0204,-0.0197,-0.0223,-0.0275,-0.0276,-0.0277,0,-0.0909,-0.0919,-0.0996,-0.1023,-0.1006,-0.0917,-0.0776,-0.0631,-0.0433,-0.0438,-0.0415,-0.0357,-0.035,-0.0318,-0.0312,-0.0349,0,0,0,-0.0945,-0.0963,-0.1017,-0.1044,-0.1023,-0.0837,-0.0727,-0.0653,-0.0476,-0.0364,-0.0293,-0.0288,-0.0277,-0.0182,-0.0114,-0.011,-0.0144,0,0]}]]